When you browse on this site, cookies collect data to enhance your experience and personalize the content and advertising you see.
Visit our Privacy Policy to learn more. By continuing to use the site, you agree to this use of cookies and data.
  • In Romania
  • List of Countries
  • For 7 days
  • Water Temperature
  • Satellite Maps
  • Weather Map
  • Weather Widgets
  • user-avatar
    Login

    Hourly Weather Edinburgh

    Today, 21 May, Tuesday

    Time Temperature Precipitation Wind Pressure Humidity
    00:00 +8°C° 0 mm 2 mps 760 mmHg 92%
    01:00 +7°C° 0 mm 2 mps 760 mmHg 93%
    02:00 +7°C° 0 mm 2 mps 760 mmHg 94%
    03:00 +7°C° 0 mm 2 mps 760 mmHg 94%
    04:00 +7°C° 0 mm 2 mps 761 mmHg 93%
    05:00 +8°C° 0 mm 2 mps 761 mmHg 92%
    06:00 +9°C° 0 mm 2 mps 761 mmHg 90%
    07:00 +10°C° 0 mm 2 mps 761 mmHg 82%
    08:00 +13°C° 0 mm 2 mps 761 mmHg 75%
    09:00 +14°C° 0 mm 2 mps 761 mmHg 68%
    10:00 +15°C° 0.1 mm 2 mps 761 mmHg 64%
    11:00 +16°C° 0.1 mm 3 mps 761 mmHg 60%
    12:00 +16°C° 0.1 mm 3 mps 761 mmHg 56%
    13:00 +15°C° 0.1 mm 4 mps 761 mmHg 56%
    14:00 +15°C° 0.1 mm 4 mps 761 mmHg 56%
    15:00 +15°C° 0.1 mm 5 mps 761 mmHg 55%
    16:00 +15°C° 0.1 mm 5 mps 761 mmHg 57%
    17:00 +14°C° 0.1 mm 4 mps 761 mmHg 59%
    18:00 +13°C° 0.1 mm 4 mps 761 mmHg 61%
    19:00 +12°C° 0 mm 4 mps 762 mmHg 66%
    20:00 +10°C° 0 mm 3 mps 762 mmHg 71%
    21:00 +8°C° 0 mm 3 mps 762 mmHg 76%
    22:00 +8°C° 0 mm 3 mps 762 mmHg 80%
    23:00 +7°C° 0 mm 2 mps 762 mmHg 85%

    Tomorrow, 22 May, Wednesday

    Time Temperature Precipitation Wind Pressure Humidity
    00:00 +6°C° 0 mm 2 mps 762 mmHg 89%
    01:00 +6°C° 0 mm 2 mps 762 mmHg 90%
    02:00 +6°C° 0 mm 2 mps 762 mmHg 92%
    03:00 +5°C° 0 mm 2 mps 762 mmHg 93%
    04:00 +6°C° 0 mm 2 mps 762 mmHg 91%
    05:00 +7°C° 0 mm 2 mps 762 mmHg 89%
    06:00 +8°C° 0 mm 3 mps 762 mmHg 86%
    07:00 +9°C° 0 mm 3 mps 762 mmHg 79%
    08:00 +10°C° 0 mm 4 mps 762 mmHg 71%
    09:00 +12°C° 0 mm 4 mps 762 mmHg 64%
    10:00 +12°C° 0 mm 5 mps 761 mmHg 62%
    11:00 +13°C° 0 mm 5 mps 761 mmHg 60%
    12:00 +14°C° 0 mm 5 mps 761 mmHg 58%
    13:00 +14°C° 0 mm 5 mps 761 mmHg 58%
    14:00 +14°C° 0 mm 5 mps 760 mmHg 59%
    15:00 +14°C° 0 mm 5 mps 760 mmHg 59%
    16:00 +13°C° 0 mm 5 mps 760 mmHg 63%
    17:00 +13°C° 0 mm 5 mps 760 mmHg 67%
    18:00 +12°C° 0 mm 5 mps 760 mmHg 71%
    19:00 +11°C° 0 mm 4 mps 760 mmHg 78%
    20:00 +10°C° 0 mm 4 mps 760 mmHg 84%
    21:00 +8°C° 0 mm 4 mps 760 mmHg 90%
    22:00 +9°C° 0 mm 3 mps 760 mmHg 92%
    23:00 +8°C° 0 mm 3 mps 760 mmHg 94%

    Day after tomorrow, 23 May, Thursday

    Time Temperature Precipitation Wind Pressure Humidity
    00:00 +8°C° 0 mm 3 mps 760 mmHg 95%
    01:00 +8°C° 0 mm 3 mps 760 mmHg 95%
    02:00 +8°C° 0 mm 3 mps 759 mmHg 94%
    03:00 +9°C° 0 mm 3 mps 759 mmHg 94%
    04:00 +9°C° 0 mm 3 mps 759 mmHg 92%
    05:00 +8°C° 0 mm 4 mps 759 mmHg 91%
    06:00 +10°C° 0 mm 4 mps 759 mmHg 90%
    07:00 +10°C° 0 mm 4 mps 759 mmHg 87%
    08:00 +11°C° 0 mm 4 mps 759 mmHg 83%
    09:00 +12°C° 0 mm 5 mps 759 mmHg 80%
    10:00 +12°C° 0 mm 5 mps 759 mmHg 77%
    11:00 +13°C° 0 mm 5 mps 759 mmHg 74%
    12:00 +13°C° 0 mm 5 mps 759 mmHg 72%
    13:00 +14°C° 0 mm 5 mps 759 mmHg 69%
    14:00 +14°C° 0 mm 5 mps 759 mmHg 66%
    15:00 +15°C° 0 mm 6 mps 759 mmHg 63%
    16:00 +14°C° 0 mm 5 mps 759 mmHg 65%
    17:00 +14°C° 0 mm 5 mps 759 mmHg 67%
    18:00 +13°C° 0 mm 5 mps 759 mmHg 68%
    19:00 +12°C° 0 mm 5 mps 760 mmHg 73%
    20:00 +10°C° 0 mm 4 mps 760 mmHg 78%
    21:00 +8°C° 0 mm 4 mps 760 mmHg 82%
    22:00 +8°C° 0 mm 4 mps 760 mmHg 86%
    23:00 +8°C° 0 mm 3 mps 760 mmHg 89%

    24 May, Friday

    Time Temperature Precipitation Wind Pressure Humidity
    00:00 +8°C° 0 mm 3 mps 760 mmHg 93%
    01:00 +6°C° 0 mm 4 mps 760 mmHg 93%
    02:00 +6°C° 0 mm 4 mps 760 mmHg 92%
    03:00 +6°C° 0 mm 4 mps 760 mmHg 92%
    04:00 +7°C° 0 mm 4 mps 761 mmHg 88%
    05:00 +7°C° 0 mm 4 mps 761 mmHg 85%
    06:00 +7°C° 0 mm 4 mps 761 mmHg 81%
    07:00 +10°C° 0 mm 4 mps 761 mmHg 75%
    08:00 +11°C° 0 mm 4 mps 761 mmHg 70%
    09:00 +12°C° 0 mm 5 mps 761 mmHg 64%
    10:00 +13°C° 0 mm 5 mps 761 mmHg 62%
    11:00 +14°C° 0 mm 5 mps 762 mmHg 59%
    12:00 +15°C° 0 mm 5 mps 762 mmHg 56%
    13:00 +15°C° 0 mm 5 mps 762 mmHg 55%
    14:00 +17°C° 0 mm 4 mps 762 mmHg 55%
    15:00 +17°C° 0 mm 4 mps 762 mmHg 54%
    16:00 +17°C° 0 mm 4 mps 762 mmHg 57%
    17:00 +15°C° 0 mm 4 mps 762 mmHg 60%
    18:00 +16°C° 0 mm 3 mps 762 mmHg 63%
    19:00 +13°C° 0 mm 3 mps 762 mmHg 69%
    20:00 +11°C° 0 mm 3 mps 763 mmHg 75%
    21:00 +9°C° 0 mm 3 mps 763 mmHg 81%
    22:00 +8°C° 0 mm 2 mps 763 mmHg 84%
    23:00 +7°C° 0 mm 2 mps 763 mmHg 87%

    25 May, Saturday

    Time Temperature Precipitation Wind Pressure Humidity
    00:00 +7°C° 0 mm 2 mps 764 mmHg 91%
    01:00 +6°C° 0 mm 2 mps 764 mmHg 91%
    02:00 +6°C° 0 mm 2 mps 764 mmHg 92%
    03:00 +6°C° 0 mm 2 mps 764 mmHg 93%
    04:00 +7°C° 0 mm 2 mps 764 mmHg 90%
    05:00 +8°C° 0 mm 2 mps 764 mmHg 87%
    06:00 +8°C° 0 mm 2 mps 764 mmHg 83%
    07:00 +10°C° 0 mm 2 mps 764 mmHg 77%
    08:00 +12°C° 0 mm 2 mps 764 mmHg 71%
    09:00 +14°C° 0 mm 2 mps 764 mmHg 64%
    10:00 +13°C° 0 mm 3 mps 763 mmHg 68%
    11:00 +13°C° 0 mm 3 mps 763 mmHg 71%
    12:00 +12°C° 0 mm 3 mps 763 mmHg 75%
    13:00 +12°C° 0.1 mm 3 mps 763 mmHg 79%
    14:00 +12°C° 0.1 mm 3 mps 763 mmHg 83%
    15:00 +12°C° 0.1 mm 3 mps 762 mmHg 87%
    16:00 +12°C° 0.2 mm 3 mps 762 mmHg 90%
    17:00 +12°C° 0.2 mm 3 mps 762 mmHg 92%
    18:00 +12°C° 0.2 mm 3 mps 762 mmHg 95%
    19:00 +12°C° 0.1 mm 3 mps 762 mmHg 96%
    20:00 +12°C° 0.1 mm 3 mps 762 mmHg 97%
    21:00 +12°C° 0.1 mm 3 mps 762 mmHg 97%
    22:00 +11°C° 0 mm 3 mps 762 mmHg 98%
    23:00 +11°C° 0 mm 3 mps 762 mmHg 98%

    26 May, Sunday

    Time Temperature Precipitation Wind Pressure Humidity
    00:00 +11°C° 0 mm 3 mps 762 mmHg 98%
    01:00 +11°C° 0 mm 3 mps 761 mmHg 98%
    02:00 +12°C° 0 mm 2 mps 761 mmHg 98%
    03:00 +12°C° 0 mm 2 mps 761 mmHg 98%
    04:00 +12°C° 0 mm 2 mps 761 mmHg 97%
    05:00 +12°C° 0 mm 2 mps 761 mmHg 97%
    06:00 +13°C° 0 mm 2 mps 761 mmHg 96%
    07:00 +13°C° 0.2 mm 2 mps 761 mmHg 96%
    08:00 +13°C° 0.2 mm 2 mps 761 mmHg 97%
    09:00 +13°C° 0.2 mm 2 mps 761 mmHg 97%
    10:00 +13°C° 0.2 mm 3 mps 760 mmHg 97%
    11:00 +13°C° 0.2 mm 3 mps 760 mmHg 97%
    12:00 +13°C° 0.2 mm 3 mps 760 mmHg 96%
    13:00 +14°C° 0.3 mm 3 mps 759 mmHg 96%
    14:00 +14°C° 0.3 mm 3 mps 759 mmHg 96%
    15:00 +14°C° 0.3 mm 4 mps 758 mmHg 96%
    16:00 +14°C° 0.4 mm 4 mps 758 mmHg 96%
    17:00 +14°C° 0.4 mm 4 mps 758 mmHg 96%
    18:00 +14°C° 0.4 mm 4 mps 758 mmHg 96%
    19:00 +13°C° 0.2 mm 4 mps 758 mmHg 96%
    20:00 +13°C° 0.2 mm 3 mps 758 mmHg 96%
    21:00 +12°C° 0.2 mm 3 mps 758 mmHg 96%
    22:00 +12°C° 0 mm 3 mps 758 mmHg 96%
    23:00 +11°C° 0 mm 3 mps 758 mmHg 95%
    Show more